| time (UTC) | temp F | wind direction | speed knots | gust knots | rain 1hr in | rain 24hr in | rain mn in | humidity % | barometer mb |
| 20260505130104 | 52 | 238 | 4.3 | 7.8 | 0.00 | 0.00 | 0.00 | 91 | 1011.8 |
| 20260505124559 | 53 | 242 | 4.3 | 7.8 | 0.00 | 0.00 | 0.00 | 90 | 1011.7 |
| 20260505123106 | 53 | 232 | 4.3 | 7.8 | 0.00 | 0.00 | 0.00 | 89 | 1011.6 |
| 20260505121556 | 53 | 239 | 4.3 | 7.8 | 0.00 | 0.00 | 0.00 | 89 | 1011.6 |
| 20260505120057 | 53 | 222 | 4.3 | 9.6 | 0.00 | 0.00 | 0.00 | 89 | 1011.4 |
| 20260505114554 | 53 | 225 | 5.2 | 8.7 | 0.00 | 0.00 | 0.00 | 87 | 1011.5 |
| 20260505113058 | 53 | 225 | 4.3 | 7.8 | 0.00 | 0.00 | 0.00 | 87 | 1011.4 |
| 20260505111555 | 52 | 234 | 2.6 | 6.1 | 0.00 | 0.00 | 0.00 | 89 | 1011.4 |
| 20260505101537 | 51 | 236 | 3.5 | 7.0 | 0.00 | 0.00 | 0.00 | 88 | 1011.1 |
| 20260505100042 | 50 | 229 | 4.3 | 8.7 | 0.00 | 0.00 | 0.00 | 90 | 1011.1 |
| 20260505094533 | 50 | 236 | 4.3 | 7.8 | 0.00 | 0.00 | 0.00 | 91 | 1011.1 |
| 20260505093133 | 50 | 244 | 3.5 | 9.6 | 0.00 | 0.00 | 0.00 | 91 | 1011.1 |
| 20260505091534 | 50 | 276 | 3.5 | 8.7 | 0.00 | 0.00 | 0.00 | 88 | 1011.0 |
| 20260505090044 | 49 | 271 | 4.3 | 8.7 | 0.00 | 0.00 | 0.00 | 90 | 1010.9 |
| 20260505084534 | 49 | 254 | 4.3 | 11.3 | 0.00 | 0.00 | 0.00 | 90 | 1010.8 |
| 20260505083034 | 49 | 235 | 3.5 | 8.7 | 0.00 | 0.00 | 0.00 | 89 | 1010.8 |
| 20260505081622 | 49 | 230 | 5.2 | 9.6 | 0.00 | 0.00 | 0.00 | 91 | 1010.7 |
| 20260505080035 | 49 | 221 | 4.3 | 9.6 | 0.00 | 0.00 | 0.00 | 92 | 1010.6 |
| 20260505074516 | 48 | 232 | 4.3 | 9.6 | 0.00 | 0.00 | 0.00 | 91 | 1010.4 |
| 20260505073016 | 48 | 229 | 5.2 | 8.7 | 0.00 | 0.00 | 0.00 | 91 | 1010.4 |
| 20260505071523 | 48 | 247 | 3.5 | 7.8 | 0.00 | 0.00 | 0.00 | 91 | 1010.4 |
| 20260505070011 | 47 | 272 | 4.3 | 11.3 | 0.00 | 0.00 | 0.00 | 92 | 1010.3 |
| 20260505064508 | 48 | 232 | 3.5 | 8.7 | 0.00 | 0.00 | 0.00 | 91 | 1010.3 |
| 20260505063007 | 47 | 227 | 4.3 | 8.7 | 0.00 | 0.00 | 0.00 | 92 | 1010.3 |
| 20260505061508 | 47 | 243 | 4.3 | 7.8 | 0.00 | 0.00 | 0.00 | 93 | 1010.3 |
| 20260505060058 | 47 | 233 | 4.3 | 10.4 | 0.00 | 0.00 | 0.00 | 94 | 1010.3 |
| 20260505054604 | 47 | 236 | 4.3 | 8.7 | 0.00 | 0.00 | 0.00 | 94 | 1010.3 |
| 20260505053050 | 46 | 214 | 5.2 | 8.7 | 0.00 | 0.00 | 0.00 | 93 | 1010.1 |
| 20260505051545 | 46 | 212 | 3.5 | 7.0 | 0.00 | 0.00 | 0.00 | 94 | 1010.0 |
| 20260505041529 | 45 | 223 | 3.5 | 5.2 | 0.00 | 0.00 | 0.00 | 94 | 1009.6 |
| 20260505033031 | 45 | 235 | 2.6 | 7.0 | 0.00 | 0.00 | 0.00 | 95 | 1009.3 |
| 20260505031519 | 44 | 223 | 1.7 | 4.3 | 0.00 | 0.00 | 0.00 | 96 | 1009.2 |
| 20260505023011 | 43 | 197 | 1.7 | 3.5 | 0.00 | 0.00 | 0.00 | 94 | 1009.1 |
| 20260505021525 | 44 | 197 | 1.7 | 3.5 | 0.00 | 0.00 | 0.00 | 94 | 1009.1 |
| 20260505020008 | 44 | 196 | 1.7 | 7.8 | 0.00 | 0.00 | 0.00 | 94 | 1008.9 |
| 20260505014508 | 43 | 235 | 2.6 | 4.3 | 0.00 | 0.00 | 0.00 | 96 | 1008.9 |
| 20260505013007 | 42 | 168 | 0.9 | 4.3 | 0.00 | 0.00 | 0.00 | 96 | 1009.0 |
| 20260505011505 | 42 | 175 | 0.9 | 3.5 | 0.00 | 0.00 | 0.00 | 96 | 1009.0 |
| 20260505010003 | 43 | 217 | 0.9 | 1.7 | 0.00 | 0.00 | 0.00 | 95 | 1008.9 |
| 20260505004504 | 44 | 217 | 0.0 | 1.7 | 0.00 | 0.00 | 0.00 | 95 | 1008.9 |
| 20260505003001 | 44 | 234 | 0.0 | 2.6 | 0.00 | 0.00 | 0.00 | 95 | 1008.9 |
| 20260505001600 | 44 | 232 | 0.0 | 1.7 | 0.00 | 0.00 | 0.00 | 94 | 1008.9 |
| 20260505000059 | 45 | 232 | 0.0 | 2.6 | 0.00 | 0.00 | 0.00 | 94 | 1009.0 |
| 20260504234558 | 46 | 200 | 0.0 | 1.7 | 0.00 | 0.00 | 0.00 | 93 | 1009.1 |
| 20260504233101 | 47 | 200 | 1.7 | 4.3 | 0.00 | 0.00 | 0.00 | 92 | 1009.1 |
| 20260504231554 | 46 | 264 | 1.7 | 7.0 | 0.00 | 0.00 | 0.00 | 94 | 1009.2 |
| 20260504230051 | 43 | 188 | 1.7 | 2.6 | 0.00 | 0.00 | 0.00 | 97 | 1009.2 |
| 20260504224550 | 43 | 183 | 0.0 | 0.0 | 0.00 | 0.00 | 0.00 | 96 | 1009.3 |
| 20260504223053 | 44 | 183 | 0.0 | 0.9 | 0.00 | 0.00 | 0.00 | 95 | 1009.4 |
| 20260504221548 | 45 | 183 | 1.7 | 4.3 | 0.00 | 0.00 | 0.00 | 95 | 1009.6 |
| 20260504214543 | 46 | 182 | 0.0 | 1.7 | 0.00 | 0.00 | 0.00 | 94 | 1009.4 |
| 20260504213045 | 47 | 184 | 0.9 | 3.5 | 0.00 | 0.00 | 0.00 | 94 | 1009.4 |
| 20260504211541 | 47 | 207 | 1.7 | 3.5 | 0.00 | 0.00 | 0.00 | 94 | 1009.3 |
| 20260504210040 | 48 | 229 | 0.0 | 2.6 | 0.00 | 0.00 | 0.00 | 93 | 1009.2 |
| 20260504204557 | 49 | 268 | 0.9 | 4.3 | 0.00 | 0.00 | 0.00 | 92 | 1009.2 |
| 20260504203041 | 49 | 274 | 0.9 | 3.5 | 0.00 | 0.00 | 0.00 | 92 | 1009.1 |
| 20260504201538 | 50 | 264 | 1.7 | 6.1 | 0.00 | 0.00 | 0.00 | 92 | 1008.9 |
| 20260504200043 | 50 | 279 | 4.3 | 8.7 | 0.00 | 0.00 | 0.00 | 91 | 1008.9 |
| 20260504194542 | 51 | 274 | 3.5 | 10.4 | 0.00 | 0.00 | 0.00 | 87 | 1008.8 |
| 20260504193038 | 51 | 224 | 7.0 | 13.0 | 0.00 | 0.00 | 0.00 | 87 | 1008.2 |
| 20260504191540 | 51 | 227 | 5.2 | 9.6 | 0.00 | 0.00 | 0.00 | 90 | 1008.2 |
| 20260504190039 | 50 | 219 | 3.5 | 7.0 | 0.00 | 0.00 | 0.00 | 90 | 1008.1 |
| 20260504184537 | 51 | 205 | 3.5 | 9.6 | 0.00 | 0.00 | 0.00 | 89 | 1007.9 |
| 20260504183036 | 50 | 223 | 4.3 | 7.8 | 0.00 | 0.00 | 0.00 | 92 | 1007.8 |
| 20260504181534 | 51 | 205 | 5.2 | 9.6 | 0.00 | 0.00 | 0.00 | 92 | 1007.6 |
| 20260504180034 | 53 | 224 | 6.1 | 12.2 | 0.00 | 0.00 | 0.00 | 89 | 1007.6 |
| 20260504174533 | 55 | 213 | 5.2 | 12.2 | 0.00 | 0.00 | 0.00 | 89 | 1007.4 |
| 20260504173033 | 55 | 215 | 6.1 | 12.2 | 0.00 | 0.00 | 0.00 | 88 | 1007.3 |
| 20260504171534 | 56 | 185 | 6.1 | 13.9 | 0.00 | 0.00 | 0.00 | 88 | 1007.3 |